Time,TemperatureF,DewpointF,PressureIn,WindDirection,WindDirectionDegrees,WindSpeedMPH,WindSpeedGustMPH,Humidity,HourlyPrecipIn,Conditions,Clouds,dailyrainin,SoftwareType,DateUTC
2013-10-23 00:13:00,31.0,24.0,29.99,North,-999,-999.0,-999.0,76,-99.99,,,-99.99,,2013-10-23 05:13:00,
2013-10-23 00:23:00,30.0,24.0,29.99,North,-999,-999.0,-999.0,77,-99.99,,,-99.99,,2013-10-23 05:23:00,
2013-10-23 00:43:00,30.0,24.0,29.96,North,-999,-999.0,-999.0,78,-99.99,,,-99.99,,2013-10-23 05:43:00,
2013-10-23 00:52:00,30.0,24.0,29.96,North,-999,-999.0,-999.0,78,-99.99,,,-99.99,,2013-10-23 05:52:00,
2013-10-23 01:12:00,31.0,25.0,29.96,North,-999,-999.0,-999.0,78,-99.99,,,-99.99,,2013-10-23 06:12:00,
2013-10-23 01:22:00,30.0,24.0,29.96,North,-999,-999.0,-999.0,78,-99.99,,,-99.99,,2013-10-23 06:22:00,
2013-10-23 01:42:00,28.0,22.0,29.96,North,-999,-999.0,-999.0,79,-99.99,,,-99.99,,2013-10-23 06:42:00,
2013-10-23 01:52:00,28.0,22.0,29.96,North,-999,-999.0,-999.0,79,-99.99,,,-99.99,,2013-10-23 06:52:00,
2013-10-23 02:12:00,27.0,22.0,29.96,North,-999,-999.0,-999.0,80,-99.99,,,-99.99,,2013-10-23 07:12:00,
2013-10-23 02:22:00,26.0,21.0,29.96,North,-999,-999.0,-999.0,80,-99.99,,,-99.99,,2013-10-23 07:22:00,
2013-10-23 02:32:00,26.0,21.0,29.96,North,-999,-999.0,-999.0,80,-99.99,,,-99.99,,2013-10-23 07:32:00,
2013-10-23 02:42:00,26.0,21.0,29.96,North,-999,-999.0,-999.0,80,-99.99,,,-99.99,,2013-10-23 07:42:00,
2013-10-23 02:52:00,26.0,21.0,29.96,North,-999,-999.0,-999.0,82,-99.99,,,-99.99,,2013-10-23 07:52:00,
2013-10-23 03:12:00,27.0,22.0,29.96,North,-999,-999.0,-999.0,82,-99.99,,,-99.99,,2013-10-23 08:12:00,
2013-10-23 03:22:00,28.0,23.0,29.96,North,-999,-999.0,-999.0,82,-99.99,,,-99.99,,2013-10-23 08:22:00,
2013-10-23 03:42:00,27.0,22.0,29.96,North,-999,-999.0,-999.0,82,-99.99,,,-99.99,,2013-10-23 08:42:00,
2013-10-23 03:53:00,28.0,23.0,29.96,North,-999,-999.0,-999.0,82,-99.99,,,-99.99,,2013-10-23 08:53:00,
2013-10-23 04:12:00,29.0,24.0,29.96,North,-999,-999.0,-999.0,81,-99.99,,,-99.99,,2013-10-23 09:12:00,
2013-10-23 04:22:00,29.0,24.0,29.96,North,-999,-999.0,-999.0,81,-99.99,,,-99.99,,2013-10-23 09:22:00,
2013-10-23 04:43:00,30.0,25.0,29.96,North,-999,-999.0,-999.0,81,-99.99,,,-99.99,,2013-10-23 09:43:00,
2013-10-23 04:53:00,31.0,26.0,29.96,North,-999,-999.0,-999.0,81,-99.99,,,-99.99,,2013-10-23 09:53:00,
2013-10-23 05:12:00,31.0,26.0,29.96,North,-999,-999.0,-999.0,80,-99.99,,,-99.99,,2013-10-23 10:12:00,
2013-10-23 05:23:00,32.0,27.0,29.96,North,-999,-999.0,-999.0,80,-99.99,,,-99.99,,2013-10-23 10:23:00,
2013-10-23 05:43:00,32.0,27.0,29.96,North,-999,-999.0,-999.0,80,-99.99,,,-99.99,,2013-10-23 10:43:00,
2013-10-23 05:53:00,32.0,27.0,29.96,North,-999,-999.0,-999.0,80,-99.99,,,-99.99,,2013-10-23 10:53:00,
2013-10-23 06:12:00,32.0,26.0,29.96,North,-999,-999.0,-999.0,79,-99.99,,,-99.99,,2013-10-23 11:12:00,
2013-10-23 06:22:00,32.0,27.0,29.96,North,-999,-999.0,-999.0,80,-99.99,,,-99.99,,2013-10-23 11:22:00,
2013-10-23 06:42:00,32.0,27.0,29.96,North,-999,-999.0,-999.0,81,-99.99,,,-99.99,,2013-10-23 11:42:00,
2013-10-23 06:52:00,32.0,27.0,29.96,North,-999,-999.0,-999.0,81,-99.99,,,-99.99,,2013-10-23 11:52:00,
2013-10-23 07:12:00,32.0,27.0,29.96,North,-999,-999.0,-999.0,82,-99.99,,,-99.99,,2013-10-23 12:12:00,
2013-10-23 07:22:00,32.0,27.0,29.96,North,-999,-999.0,-999.0,83,-99.99,,,-99.99,,2013-10-23 12:22:00,
2013-10-23 07:42:00,33.0,28.0,29.96,North,-999,-999.0,-999.0,83,-99.99,,,-99.99,,2013-10-23 12:42:00,
2013-10-23 07:52:00,33.0,28.0,29.96,North,-999,-999.0,-999.0,83,-99.99,,,-99.99,,2013-10-23 12:52:00,
2013-10-23 08:12:00,33.0,28.0,29.96,North,-999,-999.0,-999.0,83,-99.99,,,-99.99,,2013-10-23 13:12:00,
2013-10-23 08:22:00,33.0,28.0,29.96,North,-999,-999.0,-999.0,83,-99.99,,,-99.99,,2013-10-23 13:22:00,
2013-10-23 08:42:00,34.0,29.0,29.96,North,-999,-999.0,-999.0,83,-99.99,,,-99.99,,2013-10-23 13:42:00,
2013-10-23 08:52:00,35.0,30.0,29.99,North,-999,-999.0,-999.0,83,-99.99,,,-99.99,,2013-10-23 13:52:00,
2013-10-23 09:11:00,35.0,30.0,29.99,North,-999,-999.0,-999.0,83,-99.99,,,-99.99,,2013-10-23 14:11:00,
2013-10-23 09:22:00,36.0,30.0,29.99,North,-999,-999.0,-999.0,80,-99.99,,,-99.99,,2013-10-23 14:22:00,
2013-10-23 09:32:00,36.0,30.0,29.99,North,-999,-999.0,-999.0,80,-99.99,,,-99.99,,2013-10-23 14:32:00,
2013-10-23 09:42:00,36.0,30.0,29.99,North,-999,-999.0,-999.0,80,-99.99,,,-99.99,,2013-10-23 14:42:00,
2013-10-23 09:52:00,38.0,31.0,29.96,North,-999,-999.0,-999.0,77,-99.99,,,-99.99,,2013-10-23 14:52:00,
2013-10-23 10:11:00,38.0,31.0,29.96,North,-999,-999.0,-999.0,76,-99.99,,,-99.99,,2013-10-23 15:11:00,
2013-10-23 10:22:00,39.0,30.0,29.99,North,-999,-999.0,-999.0,70,-99.99,,,-99.99,,2013-10-23 15:22:00,
2013-10-23 10:43:00,41.0,30.0,29.99,North,-999,-999.0,-999.0,65,-99.99,,,-99.99,,2013-10-23 15:43:00,
2013-10-23 10:53:00,41.0,30.0,29.99,North,-999,-999.0,-999.0,65,-99.99,,,-99.99,,2013-10-23 15:53:00,
2013-10-23 11:12:00,42.0,29.0,29.99,North,-999,-999.0,-999.0,59,-99.99,,,-99.99,,2013-10-23 16:12:00,
2013-10-23 11:23:00,43.0,29.0,29.99,North,-999,-999.0,-999.0,57,-99.99,,,-99.99,,2013-10-23 16:23:00,
2013-10-23 11:43:00,43.0,28.0,29.99,North,-999,-999.0,-999.0,55,-99.99,,,-99.99,,2013-10-23 16:43:00,
2013-10-23 11:53:00,42.0,27.0,29.99,North,-999,-999.0,-999.0,56,-99.99,,,-99.99,,2013-10-23 16:53:00,
2013-10-23 12:12:00,43.0,25.0,29.96,North,-999,-999.0,-999.0,49,-99.99,,,-99.99,,2013-10-23 17:12:00,
2013-10-23 12:23:00,43.0,26.0,29.96,North,-999,-999.0,-999.0,50,-99.99,,,-99.99,,2013-10-23 17:23:00,
2013-10-23 12:44:00,43.0,26.0,29.96,North,-999,-999.0,-999.0,50,-99.99,,,-99.99,,2013-10-23 17:44:00,
2013-10-23 12:52:00,43.0,24.0,29.96,North,-999,-999.0,-999.0,47,-99.99,,,-99.99,,2013-10-23 17:52:00,
2013-10-23 13:12:00,44.0,24.0,29.96,North,-999,-999.0,-999.0,45,-99.99,,,-99.99,,2013-10-23 18:12:00,
2013-10-23 13:22:00,42.0,21.0,29.96,North,-999,-999.0,-999.0,42,-99.99,,,-99.99,,2013-10-23 18:22:00,
2013-10-23 13:42:00,44.0,23.0,29.96,North,-999,-999.0,-999.0,43,-99.99,,,-99.99,,2013-10-23 18:42:00,
2013-10-23 13:52:00,46.0,22.0,29.96,North,-999,-999.0,-999.0,39,-99.99,,,-99.99,,2013-10-23 18:52:00,
2013-10-23 14:12:00,45.0,22.0,29.96,North,-999,-999.0,-999.0,39,-99.99,,,-99.99,,2013-10-23 19:12:00,
2013-10-23 14:22:00,45.0,22.0,29.96,North,-999,-999.0,-999.0,39,-99.99,,,-99.99,,2013-10-23 19:22:00,
2013-10-23 14:42:00,44.0,24.0,29.93,North,-999,-999.0,-999.0,45,-99.99,,,-99.99,,2013-10-23 19:42:00,
2013-10-23 14:53:00,44.0,23.0,29.93,North,-999,-999.0,-999.0,44,-99.99,,,-99.99,,2013-10-23 19:53:00,
2013-10-23 15:11:00,44.0,23.0,29.93,North,-999,-999.0,-999.0,43,-99.99,,,-99.99,,2013-10-23 20:11:00,
2013-10-23 15:22:00,44.0,23.0,29.96,North,-999,-999.0,-999.0,43,-99.99,,,-99.99,,2013-10-23 20:22:00,
2013-10-23 15:42:00,44.0,23.0,29.96,North,-999,-999.0,-999.0,43,-99.99,,,-99.99,,2013-10-23 20:42:00,
2013-10-23 15:52:00,43.0,22.0,29.96,North,-999,-999.0,-999.0,42,-99.99,,,-99.99,,2013-10-23 20:52:00,
2013-10-23 16:12:00,42.0,21.0,29.96,North,-999,-999.0,-999.0,43,-99.99,,,-99.99,,2013-10-23 21:12:00,
2013-10-23 16:22:00,42.0,22.0,29.96,North,-999,-999.0,-999.0,44,-99.99,,,-99.99,,2013-10-23 21:22:00,
2013-10-23 16:43:00,42.0,23.0,29.96,North,-999,-999.0,-999.0,46,-99.99,,,-99.99,,2013-10-23 21:43:00,
2013-10-23 16:54:00,42.0,23.0,29.96,North,-999,-999.0,-999.0,47,-99.99,,,-99.99,,2013-10-23 21:54:00,
2013-10-23 17:13:00,41.0,23.0,29.96,North,-999,-999.0,-999.0,49,-99.99,,,-99.99,,2013-10-23 22:13:00,
2013-10-23 17:24:00,41.0,23.0,29.96,North,-999,-999.0,-999.0,49,-99.99,,,-99.99,,2013-10-23 22:24:00,
2013-10-23 17:43:00,40.0,23.0,29.96,North,-999,-999.0,-999.0,50,-99.99,,,-99.99,,2013-10-23 22:43:00,
2013-10-23 17:54:00,39.0,23.0,29.96,North,-999,-999.0,-999.0,52,-99.99,,,-99.99,,2013-10-23 22:54:00,
2013-10-23 18:03:00,39.0,23.0,29.96,North,-999,-999.0,-999.0,52,-99.99,,,-99.99,,2013-10-23 23:03:00,
2013-10-23 18:12:00,39.0,23.0,29.96,North,-999,-999.0,-999.0,52,-99.99,,,-99.99,,2013-10-23 23:12:00,
2013-10-23 18:22:00,38.0,22.0,29.96,North,-999,-999.0,-999.0,53,-99.99,,,-99.99,,2013-10-23 23:22:00,
2013-10-23 18:42:00,38.0,22.0,29.96,North,-999,-999.0,-999.0,52,-99.99,,,-99.99,,2013-10-23 23:42:00,
2013-10-23 18:52:00,38.0,22.0,29.96,North,-999,-999.0,-999.0,53,-99.99,,,-99.99,,2013-10-23 23:52:00,
2013-10-23 19:12:00,37.0,22.0,29.96,North,-999,-999.0,-999.0,55,-99.99,,,-99.99,,2013-10-24 00:12:00,
2013-10-23 19:22:00,37.0,22.0,29.96,North,-999,-999.0,-999.0,55,-99.99,,,-99.99,,2013-10-24 00:22:00,
2013-10-23 19:42:00,37.0,22.0,29.96,North,-999,-999.0,-999.0,55,-99.99,,,-99.99,,2013-10-24 00:42:00,
2013-10-23 19:52:00,37.0,22.0,29.96,North,-999,-999.0,-999.0,54,-99.99,,,-99.99,,2013-10-24 00:52:00,
2013-10-23 20:11:00,37.0,22.0,29.96,North,-999,-999.0,-999.0,54,-99.99,,,-99.99,,2013-10-24 01:11:00,
2013-10-23 20:22:00,37.0,22.0,29.96,North,-999,-999.0,-999.0,54,-99.99,,,-99.99,,2013-10-24 01:22:00,
2013-10-23 20:42:00,36.0,21.0,29.99,North,-999,-999.0,-999.0,55,-99.99,,,-99.99,,2013-10-24 01:42:00,
2013-10-23 20:52:00,36.0,22.0,29.99,North,-999,-999.0,-999.0,56,-99.99,,,-99.99,,2013-10-24 01:52:00,
2013-10-23 21:12:00,36.0,22.0,29.99,North,-999,-999.0,-999.0,57,-99.99,,,-99.99,,2013-10-24 02:12:00,
2013-10-23 21:22:00,36.0,22.0,29.99,North,-999,-999.0,-999.0,57,-99.99,,,-99.99,,2013-10-24 02:22:00,
2013-10-23 22:12:00,36.0,23.0,29.99,North,-999,-999.0,-999.0,58,-99.99,,,-99.99,,2013-10-24 03:12:00,
2013-10-23 22:22:00,36.0,23.0,29.99,North,-999,-999.0,-999.0,59,-99.99,,,-99.99,,2013-10-24 03:22:00,
2013-10-23 22:44:00,36.0,23.0,30.02,North,-999,-999.0,-999.0,58,-99.99,,,-99.99,,2013-10-24 03:44:00,
2013-10-23 22:55:00,36.0,23.0,30.02,North,-999,-999.0,-999.0,58,-99.99,,,-99.99,,2013-10-24 03:55:00,
2013-10-23 23:04:00,36.0,23.0,30.02,North,-999,-999.0,-999.0,58,-99.99,,,-99.99,,2013-10-24 04:04:00,
2013-10-23 23:14:00,36.0,23.0,30.02,North,-999,-999.0,-999.0,58,-99.99,,,-99.99,,2013-10-24 04:14:00,
2013-10-23 23:24:00,35.0,22.0,30.02,North,-999,-999.0,-999.0,58,-99.99,,,-99.99,,2013-10-24 04:24:00,
2013-10-23 23:44:00,35.0,22.0,30.02,North,-999,-999.0,-999.0,58,-99.99,,,-99.99,,2013-10-24 04:44:00,
2013-10-23 23:54:00,35.0,22.0,30.02,North,-999,-999.0,-999.0,58,-99.99,,,-99.99,,2013-10-24 04:54:00,